sat.trackr.live / text

‹ back to catalog

STARLINK-2624

NORAD 48358 · 2021-038F

PAYLOAD ACTIVE UNKNOWN

§ Identity

Operator
Country
US
Launch date
2021-05-04
Launch site
AFETR
Launch vehicle
Mass (kg)
RCS (m²)

Purposes: comms

External: N2YO · Heavens-Above · Gunter

§ Orbital elements

Epoch: 2026-09-19T06:12:06.831360Z

Period
94.01 min
Inclination
53.1626°
Eccentricity
0.0001616
Mean motion
15.31709154 rev/d
Perigee alt
469.6 km
Apogee alt
471.8 km
Semi-major
6,848.8 km
B*
4.1038e-5
RAAN
177.2915°
Arg perigee
83.9579°
Mean anomaly
276.1606°
Rev number
29,673

§ Raw data

STARLINK-26241 48358U 21038F   26262.25841240  .00000909  00000+0  41038-4 0  99932 48358  53.1626 177.2915 0001616  83.9579 276.1606 15.31709154296731

JSON: /api/v1/satellites/48358 · /tle

For live sub-satellite position, see the globe view (requires WebGL).

§ Visibility from observer

Set your observer location to see the next 7 days of passes ≥ 10°. The values pass through the URL so the page stays shareable.

No JS? Fill the form by hand. The geolocation button needs JavaScript.